Starlink 32931

operational
NORAD ID: 63199 Int'l Des: 2025-048 Owner: SPXS Country: US Constellation: starlink
LEOCIRCULAR

关于 Starlink 32931

正在加载描述...

实时位置

正在加载3D地球...

即将过境

高度历史

Altitude vs Time

uPlot chart will show altitude changes over time

两行轨道根数

1 63199U 25048S 26095.57151241 .00029744 00000-0 10853-2 0 9990
2 63199 42.9958 293.4811 0000831 317.7794 42.2993 15.27601380 61206
Epoch: Apr 5, 2026 • Age: 8 hours

当前状态

高度 486.0 km
速度 7.63 km/s
星下点 40.46°N, 118.68°W
发射日期 Mar 13, 2025
运行时间 1 years
类型 internet

技术详情

分类 Payload
质量 730.00 kg
干质量 700.00 kg
总质量 730.00 kg
长度 0.30 m
直径 4.10 m
跨度 29.00 m
形状 Box + pan
制造商 SPXS
平台类型 Starlink V2M
阶段状态 In Orbit
所有者/国家 SPXS/US

大型星座

Loading constellations...